Probability
7 7 7 7 6 6 6 6 6 5 5 5 6 6 4 2 1 0 1 4 5 5 7 9 9 8 10 12 14 17 19 17 15 14 15 19 22 23 25 22 16 14 13
8 7 7 7 6 6 6 6 5 4 5 6 6 5 4 3 2 1 2 4 5 7 10 13 12 9 9 11 13 17 19 18 16 15 16 20 21 22 21 18 13 10 10
9 8 7 7 6 6 6 5 4 3 4 6 6 4 3 3 3 3 3 4 5 7 12 14 14 11 8 8 9 12 15 15 15 16 18 19 20 18 16 14 13 11 10
9 7 6 6 6 6 5 5 4 3 4 5 5 4 3 3 3 3 3 2 3 5 8 12 14 13 7 4 4 6 9 11 11 13 15 17 18 17 14 15 16 16 13
9 8 7 6 6 6 6 5 4 3 3 4 3 3 2 2 2 2 2 1 1 2 4 7 11 11 6 2 2 3 5 7 8 10 12 16 19 17 15 16 18 18 17
10 10 8 7 7 7 7 6 5 3 3 2 2 2 1 0 1 1 1 1 1 1 2 4 6 6 4 3 3 3 3 3 5 8 10 15 20 21 17 16 17 17 18
11 9 8 7 7 7 7 7 5 3 1 1 0 0 0 0 0 0 0 0 1 1 2 3 3 2 2 2 4 4 4 3 4 6 9 14 21 22 18 16 15 15 16
9 7 5 5 5 5 6 7 5 2 1 0 0 0 0 0 0 0 0 0 0 1 2 2 1 0 0 1 2 4 4 3 4 6 9 14 18 20 19 16 15 16 16
7 5 3 2 2 3 4 4 3 1 0 0 0 0 0 0 0 0 0 0 0 0 1 1 0 0 0 0 0 1 2 2 4 6 10 14 16 15 14 14 15 17 17
7 5 3 1 1 1 2 2 1 0 0 0 0 0 0 0 0 0 0 0 0 0 0 0 0 0 0 0 0 0 0 2 3 6 10 13 15 13 11 11 14 17 17
6 6 4 2 1 1 2 1 1 0 0 0 0 0 0 0 0 0 0 0 0 0 0 0 0 0 0 0 0 0 0 1 1 3 6 9 12 13 11 11 13 14 15
6 5 3 1 1 2 3 2 1 0 0 0 0 0 0 0 0 0 0 0 0 0 0 0 0 0 0 0 0 0 0 0 0 1 2 3 6 10 12 12 11 11 11
6 4 3 1 0 2 3 3 1 0 0 0 0 0 0 0 0 0 0 0 0 0 0 0 0 0 0 0 0 0 0 0 0 0 0 0 1 4 8 9 9 8 8
5 4 3 1 1 2 3 2 1 0 0 0 0 0 0 0 0 0 0 0 0 0 0 0 0 0 0 0 0 0 0 0 0 0 0 0 0 1 3 5 6 6 6
5 4 3 2 1 3 3 2 0 0 0 0 0 0 0 0 0 0 0 0 0 0 0 0 0 0 0 0 0 0 0 0 0 0 0 0 0 0 1 2 3 4 4
5 4 3 3 2 3 3 1 0 1 1 0 0 0 0 0 0 0 0 0 0 0 0 0 0 0 0 0 0 0 0 0 0 0 0 0 0 0 0 1 1 2 2
3 2 2 3 3 3 2 1 1 2 2 1 0 0 0 0 0 0 0 0 0 0 0 0 0 0 0 0 0 0 0 0 0 0 0 0 0 0 0 0 0 1 1
1 1 1 2 2 2 2 1 2 3 2 1 0 0 0 0 0 0 0 0 0 0 0 0 0 0 0 0 0 0 0 0 0 0 0 0 0 0 0 0 0 0 0
0 0 1 2 1 1 1 1 1 2 1 0 0 0 0 0 0 0 0 0 0 0 0 0 0 0 0 0 0 0 0 0 0 0 0 0 0 0 0 0 0 0 0
0 0 1 2 1 0 0 1 1 1 0 0 0 0 0 0 0 0 0 0 0 0 0 0 0 0 0 0 0 0 0 0 0 0 0 0 0 0 0 0 0 0 0
0 0 0 1 1 0 0 0 0 0 0 0 0 0 0 0 0 0 0 0 0 0 0 0 0 0 0 0 0 0 0 0 0 0 0 0 0 0 0 0 0 0 0
0 0 0 0 0 0 0 0 0 0 0 0 0 0 0 0 0 0 0 0 0 0 0 0 0 0 0 0 0 0 0 0 0 0 0 0 0 0 0 0 0 0 0
0 0 0 0 0 0 0 0 0 0 0 0 0 0 0 0 0 0 0 0 0 0 0 0 0 0 0 0 0 0 0 0 0 0 0 0 0 0 0 0 0 0 0
0 0 0 0 0 0 0 0 0 0 0 0 0 0 0 0 0 0 0 0 0 0 0 0 0 0 0 0 0 0 0 0 0 0 0 0 0 0 0 0 0 0 0
0 0 0 0 0 0 0 0 0 0 0 0 0 0 0 0 0 0 0 0 0 0 0 0 0 0 0 0 0 0 0 0 0 0 0 0 0 0 0 0 0 0 0
0 0 0 0 0 0 0 0 0 0 0 0 0 0 0 0 0 0 0 0 0 0 0 0 0 0 0 0 0 0 0 0 0 0 0 0 0 0 0 0 0 0 0
Wind_Speed
2 2 1 1 1 1 1 1 1 2 2 2 2 2 2 2 2 2 2 5 6 6 7 7 8 8 8 8 8 8 9 10 11 11 12 13 15 16 16 15 15 14 14
2 2 1 1 1 1 1 1 1 1 1 1 2 2 2 2 3 2 3 4 7 7 8 8 8 8 8 8 8 8 9 9 10 10 11 12 13 16 16 16 15 14 14
2 2 1 1 1 1 1 1 1 0 1 1 2 2 2 2 3 3 3 3 4 7 8 7 7 7 7 8 8 8 9 9 10 10 11 12 12 14 16 16 16 15 14
2 2 1 1 1 1 1 1 1 0 1 1 2 3 2 3 4 3 3 3 3 3 5 7 7 7 7 8 8 8 9 9 9 10 11 11 12 13 14 15 15 15 15
1 1 1 1 1 1 1 1 0 1 1 2 3 3 2 3 3 3 2 3 3 3 2 5 7 7 8 9 9 9 9 9 10 10 11 11 11 12 13 14 14 14 15
1 1 1 1 1 1 1 1 1 1 1 2 3 3 3 3 3 2 3 2 2 3 3 3 3 4 7 8 9 10 10 10 10 11 11 11 11 11 12 13 13 14 15
1 0 1 0 0 1 1 1 1 1 1 0 1 3 3 3 2 2 2 1 2 2 2 3 2 2 3 7 8 10 10 10 10 11 11 11 11 11 12 13 13 13 13
2 1 1 1 1 0 1 1 1 0 1 0 1 1 3 4 3 2 2 1 2 2 2 3 3 3 3 3 6 10 10 10 11 11 11 11 11 11 11 13 14 13 13
2 2 2 1 1 1 1 2 1 2 1 1 1 2 1 2 4 3 2 2 2 2 2 2 3 4 4 3 4 7 9 9 11 11 11 10 10 11 12 12 13 13 14
2 2 2 1 1 1 2 2 2 2 2 1 1 1 2 3 1 3 4 3 3 3 3 3 3 4 4 3 5 7 9 10 11 11 12 11 11 11 11 11 12 13 14
1 2 2 2 2 2 3 3 2 2 2 3 2 2 1 1 2 2 4 4 3 3 3 3 3 3 4 4 4 6 9 9 10 11 11 11 11 12 12 12 12 12 13
2 2 2 2 3 3 3 3 3 3 3 3 3 2 2 2 2 2 3 3 4 4 3 3 3 3 3 4 6 9 10 9 9 9 11 12 12 12 12 12 13 13 14
2 3 2 2 2 3 3 3 3 3 4 4 4 3 3 3 3 3 3 3 3 3 3 3 3 3 3 3 4 8 9 9 10 10 11 12 12 12 12 12 13 13 14
3 3 3 3 3 3 3 3 3 4 3 4 5 4 3 3 3 3 3 2 3 3 3 4 3 3 3 3 5 7 5 9 9 10 11 11 12 12 12 12 12 12 13
2 3 3 3 4 4 3 3 3 4 3 4 4 4 3 3 3 3 3 3 3 3 4 4 3 3 3 3 5 4 4 7 9 9 10 10 11 12 12 12 11 10 10
2 2 3 3 4 3 2 2 2 3 2 3 3 3 3 3 3 3 3 3 4 4 4 4 4 4 3 4 5 4 5 9 10 10 10 10 10 11 11 11 11 10 10
2 3 3 3 3 3 2 2 2 2 2 3 3 3 4 4 2 3 3 3 3 3 4 4 3 3 3 4 4 4 4 4 5 9 9 9 9 10 10 11 11 10 10
3 3 3 2 3 3 2 2 3 3 3 3 4 3 4 3 3 3 2 3 3 3 3 4 3 2 3 4 4 4 4 4 4 7 9 9 9 9 9 10 10 10 10
3 3 2 2 3 2 2 2 2 3 3 4 4 3 4 3 3 3 3 3 3 3 2 3 4 2 3 3 2 3 4 3 4 5 7 9 9 9 10 10 9 9 9
2 2 2 3 3 2 2 3 2 3 3 3 3 3 4 4 4 4 3 3 3 3 2 2 3 3 3 3 1 2 3 3 3 3 4 4 6 8 9 9 9 9 10
2 2 2 3 2 2 2 2 3 3 3 4 3 3 3 3 4 4 3 3 3 2 2 2 3 2 3 2 2 2 3 3 3 2 2 2 3 3 4 7 10 11 11
2 2 3 2 2 2 3 4 3 3 3 3 4 4 4 3 5 6 7 6 4 4 3 3 3 4 5 4 3 2 2 2 3 2 1 3 2 3 4 4 8 11 11
2 3 3 2 2 3 4 5 4 3 3 3 3 4 4 4 5 4 6 6 6 6 6 4 4 6 5 4 3 3 3 3 4 3 2 3 3 4 5 6 11 12 12
2 2 2 2 2 3 4 5 5 3 3 3 3 3 3 5 5 4 4 4 5 5 5 4 5 7 6 5 5 5 4 4 4 3 3 3 3 4 4 4 9 12 13
2 2 2 2 2 4 5 4 3 2 2 4 3 3 3 4 6 5 3 4 5 5 5 5 6 7 8 8 6 2 2 2 3 3 2 3 3 2 2 3 5 9 11
2 2 2 2 2 3 5 4 3 1 2 3 4 4 4 5 6 5 3 3 4 5 5 5 5 5 5 6 7 5 4 3 3 3 3 2 2 1 2 2 2 3 5
Wind_Direction
192 199 212 213 222 236 221 226 250 263 271 282 280 274 263 252 242 232 253 254 248 246 242 241 240 236 232 231 234 234 234 234 233 228 222 217 216 212 210 210 205 203 203
181 184 193 200 217 227 230 214 229 244 259 267 279 280 269 257 249 242 244 252 251 250 248 245 242 240 237 236 235 234 236 239 238 234 228 223 221 216 211 209 207 205 203
172 174 176 190 230 222 220 209 232 286 306 291 280 280 275 270 268 257 245 237 240 246 243 241 238 237 239 241 242 240 240 241 241 239 234 228 224 221 216 211 208 207 206
162 162 171 201 227 204 186 194 187 193 289 290 284 281 276 271 270 262 248 239 232 236 243 241 237 233 238 245 247 248 246 246 246 243 238 234 229 223 219 214 210 207 207
137 142 173 205 201 167 202 236 186 183 252 279 275 269 272 269 268 268 250 244 237 234 234 243 238 237 243 247 248 250 252 252 250 247 243 240 234 226 220 217 212 208 207
135 124 172 212 173 159 222 236 229 241 234 250 279 291 278 269 270 261 250 254 245 236 233 238 241 247 249 252 253 254 254 254 252 249 245 241 236 228 221 220 214 210 209
158 156 196 175 164 193 219 216 220 263 273 304 6 325 311 293 279 267 259 257 262 252 236 232 227 232 250 253 257 258 255 255 255 252 246 241 236 229 222 221 218 215 214
203 191 197 206 199 222 286 248 181 212 278 104 122 23 330 328 320 306 298 274 265 262 252 247 234 234 242 245 255 259 257 254 254 251 248 242 237 234 228 224 220 217 215
206 201 199 199 205 195 231 237 194 173 231 272 157 156 172 259 300 308 298 291 285 278 273 269 252 247 244 240 250 257 257 253 251 251 248 244 241 238 235 228 224 220 217
217 205 198 196 212 219 238 237 204 189 183 242 276 218 197 193 210 299 309 297 286 278 272 272 264 256 251 245 242 247 253 251 249 249 248 245 243 241 236 231 228 224 222
235 224 210 214 221 224 233 241 236 217 200 206 217 226 237 233 195 198 279 300 304 280 264 259 258 259 252 245 240 243 247 248 250 250 250 248 245 241 236 233 231 228 224
265 249 232 230 236 225 227 230 233 234 230 223 222 209 199 208 225 209 241 273 285 282 277 261 254 257 256 249 247 248 243 243 247 250 249 247 246 243 239 235 232 231 227
257 260 254 249 251 237 225 221 226 240 233 228 229 229 220 218 208 200 214 255 273 282 286 272 250 251 256 248 255 254 249 245 245 245 245 246 245 242 240 238 234 230 227
236 241 240 257 257 246 239 224 230 244 242 239 237 230 234 239 216 201 199 214 275 286 279 271 273 249 254 249 252 255 258 252 247 244 244 243 242 240 239 236 233 230 228
239 243 247 264 265 251 245 233 237 247 251 250 248 242 237 247 232 222 209 196 203 258 278 270 265 262 257 254 256 247 246 251 246 245 244 242 240 237 236 231 226 225 224
245 254 262 268 266 264 259 244 248 257 257 261 247 248 248 250 249 239 227 218 202 212 250 256 252 257 265 272 267 253 245 252 249 245 240 238 235 232 230 225 222 221 221
250 256 264 271 272 269 263 261 263 269 269 272 259 249 255 255 251 253 241 231 221 203 239 268 260 266 266 272 282 271 260 250 251 247 241 238 235 231 226 222 220 220 220
256 260 264 271 269 269 269 264 271 279 277 274 271 262 262 259 254 256 249 245 242 224 216 257 274 268 258 263 268 270 269 261 249 246 237 236 236 235 230 227 221 220 221
272 285 280 279 277 275 275 269 260 271 274 267 264 256 258 255 261 263 252 251 253 253 218 226 258 255 255 265 279 280 279 275 261 248 236 235 235 233 229 224 221 220 222
274 283 277 274 266 265 276 279 280 279 282 282 271 259 260 247 246 256 257 254 255 260 247 241 256 264 259 265 256 272 292 289 277 270 252 238 233 233 231 226 223 222 222
279 268 279 283 280 273 273 280 281 285 286 293 288 277 271 265 264 261 261 254 250 247 254 252 258 269 270 269 260 252 270 287 285 260 255 252 231 232 232 229 226 225 226
287 287 285 267 275 286 297 290 281 283 284 288 294 291 280 278 286 282 274 260 235 231 242 243 247 253 260 252 255 251 259 283 284 263 218 262 227 240 239 226 225 224 224
283 295 285 270 272 283 291 294 290 280 277 277 279 286 296 302 301 292 289 287 270 257 234 221 238 248 249 243 238 252 248 242 247 246 209 256 237 239 240 235 224 224 225
272 280 284 286 287 300 297 296 305 302 283 282 277 275 285 299 303 299 292 294 285 277 260 240 232 244 245 240 227 234 242 256 263 255 199 234 241 240 246 235 229 224 223
285 284 284 295 295 301 304 301 312 319 309 304 299 296 296 301 308 312 300 293 297 296 292 290 272 265 260 254 243 238 249 249 273 272 213 215 238 243 248 243 239 229 224
274 302 315 299 283 294 312 314 320 314 310 308 312 313 307 308 309 310 287 279 288 290 307 322 319 307 286 272 256 225 221 230 244 261 235 208 233 203 271 257 231 227 226